Regional Weather Roundup
Issued by NWS

Home | Current Version | Previous Version | Text Only | Print | Product List | Glossary Off
Versions: 1 2 3 4 5 6 7 8 9 10 11 12 13 14 15 16 17 18 19 20 21 22 23 24 25 26 27 28 29 30 31 32 33 34 35 36 37 38 39 40 41 42 43 44 45 46 47 48 49 50

000
ASUS43 KFSD 182102
RWRSD

WEATHER ROUNDUP FOR SOUTH DAKOTA
NATIONAL WEATHER SERVICE SIOUX FALLS SD
300 PM CST WED JAN 18 2017

NOTE: "FAIR" INDICATES FEW OR NO CLOUDS BELOW 12,000 FEET WITH NO
SIGNIFICANT WEATHER AND/OR OBSTRUCTIONS TO VISIBILITY.


SDZ001>005-009-010-012>017-182200-
NORTHWEST AND NORTH CENTRAL SOUTH DAKOTA

CITY           SKY/WX    TMP DP  RH WIND       PRES   REMARKS
BUFFALO          N/A     41  26  55 W6        29.58F
FAITH            N/A     32  26  78 S10       29.66F WCI  24
MOBRIDGE       CLOUDY    28  20  71 SE13      29.67F WCI  17
$$

SDZ012>016-024>037-041>051-057-063-072>074-182200-
SOUTHWEST AND SOUTH CENTRAL SOUTH DAKOTA

CITY           SKY/WX    TMP DP  RH WIND       PRES   REMARKS
RAPID CTY ARPT CLOUDY    38  26  62 CALM      29.66F
PIERRE         CLOUDY    34  23  64 CALM      29.71F
CUSTER         SUNNY     59  19  21 SE6       29.71F
ELLSWORTH AFB  SUNNY     43  28  56 CALM      29.65F
PHILIP         CLOUDY    36  25  64 CALM      29.70F
PINE RIDGE     CLOUDY    41  25  53 SW13      29.74F
SPEARFISH      FAIR      50  30  46 CALM      29.66F
WINNER         FAIR      54  25  32 SW12      29.72F
$$

SDZ004>011-016>023-039-040-182200-
NORTHEAST SOUTH DAKOTA

CITY           SKY/WX    TMP DP  RH WIND       PRES   REMARKS
ABERDEEN       SUNNY     32  22  66 S9        29.74F WCI  24
WATERTOWN      SUNNY     35  28  75 S12       29.76F WCI  27
BROOKINGS      SUNNY     38  30  73 SE7       29.78F
SISSETON         N/A     42  28  57 W12       29.72R
$$

SDZ017-020-022-023-036>040-048>070-182200-
SOUTHEAST SOUTH DAKOTA

CITY           SKY/WX    TMP DP  RH WIND       PRES   REMARKS
SIOUX FALLS    MOSUNNY   44  35  70 S10       29.81F
HURON          SUNNY     39  28  64 SE6       29.76F
CHAMBERLAIN    SUNNY     46  30  54 NE6       29.73F
MITCHELL       SUNNY     46  34  62 SE9       29.78F
YANKTON        SUNNY     50  39  66 S10       29.79F
$$

ABBREVIATIONS USED IN REMARKS
   TC - TEMPERATURE IN CELSIUS
  WCI - WIND CHILL INDEX
   HX - HEAT INDEX
  VSB - VISIBILITY




USA.gov is the U.S. government's official web portal to all federal, state and local government web resources and services.